Location: *
(42.5628°N, 2.3633°E)
Time: 19:55:12
(UTC+00:00)

Cosmos 2369 Rocket - Pass Details

Date: 30 March 2020
Orbit: 829 x 852 km, 71.0° (Epoch: 31 May)

Event Time Altitude Azimuth Distance (km) Brightness Sun altitude
Rises 21:16:27 0° 327° (NNW) 3,422 6.4 -31.1°
Reaches altitude 10° 21:19:04 10° 320° (NW) 2,480 5.5 -31.5°
Maximum altitude 21:24:14 36° 255° (WSW) 1,302 3.3 -32.1°
Enters shadow 21:24:18 36° 253° (WSW) 1,303 3.3 -32.2°
